Location: Dumpton Point
(51.3500°N, 1.4433°E)
Time: 21:12:55
(UTC+00:00)

Vanguard 2 Rocket - Pass Details

Date: 28 September 2022
Orbit: 555 x 3321 km, 32.9° (Epoch: 05 December)

Event Time Altitude Azimuth Distance (km) Brightness Sun altitude
Rises 02:37:16 0° 242° (WSW) 4,361 - -28.9°
Reaches altitude 10° 02:42:44 10° 215° (SW) 2,768 - -28.2°
Maximum altitude 02:45:03 12° 193° (SSW) 2,375 - -27.9°
Drops below altitude 10° 02:47:05 10° 171° (S) 2,325 - -27.7°
Exits shadow 02:49:48 - 144° (SE) 2,727 9.4 -27.3°
Sets 02:50:41 0° 138° (SE) 2,947 9.6 -27.2°
